DECAYED

STARLINK-30175, 57311 (Decayed)

Orbit data source: Space-Track

STARLINK-30175, 57311 was a payload satellite owned by SpaceX/Seattle (US) in LEO that was launched on Mon, 10 Jul 2023 UTC via an FALCON 9 launch vehicle from the Air Force Eastern Test Range (AFETR). Payload-class satellites include a variety of spacecraft equipped with specific instruments for various scientific and technological missions. These include communications satellites like Starlink; space stations such as the ISS; scientific satellites like the Hubble; Earth observation satellites from companies like Planet Labs, Umbra, and HawkEye 360; GPS; miniature CubeSats for education and research; and military/defense satellites.

Not visible in the next 10 days
Identifier
57311, 2023-096X
Orbit
Decayed
Country
Flag of USUS
Related business
Manufacturer
SpaceX/Seattle
Mission
Decayed Commercial Communications
Bus & Motor
STARLINK V2M, Unknown motor
Mass
730 kg wet, ~700 kg dry
Launch date (UTC)
2023-07-10 (3 years ago)
Launch vehicle
FALCON 9
Launch site
Air Force Eastern Test Range (AFETR)
Object type
Payload
Rocket body
Debris
Shape & HBR
Box + 2 Pan, 17.7 m
Radar Cross Section
33.884 m², Large (>1 m²)

Expand to show TLE details & history
Last TLE update: 6 months ago

TLE from 6 months ago
0 STARLINK-30175
1 57311U 23096X   26055.21073554  .15653976  91501-5  49506-2 0  9991
2 57311  42.9582 214.7468 0014892 320.2419  39.7376 16.25082464145638
Epoch: 2026-02-24T05:03Z
TLE epoch observation values (Epoch: 2026-02-24T05:03:27.550Z)
Latitude
Longitude
-15.21152°
Altitude
198.017 km
Speed
7.794 km/s
True Right ascension
14h 18m 59s
True Declination
0° 00' 00"
Sunlit
Object was in full shadow at epoch
Visualization orbit readout
Latitude
Unknown
Longitude
Unknown
Altitude
Unknown
Speed
Unknown
Apparent Right ascension
Unknown
Apparent Declination
Unknown
Sunlit
N/A
Visualization observer readout
Local Sidereal Time
11:44:00
Azimuth
Unknown
Elevation
Unknown
Doppler factor
Unknown
Orbital elements
Apogee altitude
217.63 km
Perigee altitude
198.015 km
Semi-major axis
6,585.96 km
Eccentricity
0.00149
Inclination
42.9582°
RAAN
214.7468°
Arg. of periapsis
320.2419°
True anomaly
39.84685°
Mean anomaly
39.7376°
Eccentric anomaly
39.79221°
Mean motion
4.06083 °/min
Orbital period
88.65 mins
BSTAR
0.0049506
Loading maneuver chart data...
Computing Atmospheric mass density...

Documentation

Showing up to 5 results
|